This demonstration page uses our WeatherBlox Daily Observations layout. Learn more.

Left ArrowRight Arrow

Hourly Observations for May 1, 2018

Temp ( °F °C ) Dew Point ( °F °C ) Humidity (%) Winds ( mph kmh ) Pressure ( in mb ) Visibility ( mi km ) Precip ( " mm )
12:56 am 00:56 Clear 67 19.4 57 13.9 71 71 S 20 31 29.58 1002 10 16 0.00 0.00
1:56 am 01:56 Mostly Cloudy 68 20 58 14.4 70 70 W 6 9 29.63 1003 10 16 0.00 0.00
2:09 am 02:09 Cloudy 68 20 57 14 69 69 SW 15 24 29.62 1003 10 16 0.00 0.00
2:21 am 02:21 Cloudy 68 20 57 14 69 69 SW 13 20 29.62 1003 10 16 0.00 0.00
2:56 am 02:56 Cloudy 68 20 58 14.4 70 70 SW 8 13 29.63 1004 10 16 0.00 0.00
3:13 am 03:13 Cloudy 66 19 57 14 73 73 SSW 9 15 29.62 1003 10 16 0.00 0.00
3:56 am 03:56 Mostly Cloudy 64 17.8 55 12.8 73 73 NNW 21 33 29.64 1004 10 16 0.00 0.00
4:07 am 04:07 Cloudy 61 16 52 11 72 72 N 18 30 29.68 1005 10 16 0.00 0.00
4:56 am 04:56 Cloudy 55 12.8 49 9.4 80 80 N 16 26 29.66 1005 10 16 0.00 0.00
5:56 am 05:56 Cloudy 54 12.2 47 8.3 77 77 N 16 26 29.69 1005 10 16 0.00 0.00
6:56 am 06:56 Cloudy 52 11.1 45 7.2 77 77 N 17 28 29.69 1006 10 16 0.00 0.00
7:56 am 07:56 Cloudy 53 11.7 46 7.8 77 77 NNE 18 30 29.70 1006 10 16 0.00 0.00
8:56 am 08:56 Cloudy 54 12.2 47 8.3 77 77 NNE 15 24 29.70 1006 10 16 0.00 0.00
9:56 am 09:56 Cloudy 57 13.9 48 8.9 72 72 NE 14 22 29.70 1006 10 16 0.00 0.00
10:56 am 10:56 Cloudy 61 16.1 50 10 67 67 ENE 12 19 29.70 1006 10 16 0.00 0.00
11:56 am 11:56 Cloudy 64 17.8 54 12.2 70 70 E 9 15 29.70 1006 10 16 0.00 0.00
12:56 pm 12:56 Cloudy 67 19.4 56 13.3 68 68 E 9 15 29.68 1005 10 16 0.00 0.00
1:56 pm 13:56 Mostly Cloudy 69 20.6 57 13.9 66 66 VRB 6 9 29.67 1005 10 16 0.00 0.00
2:29 pm 14:29 Mostly Cloudy 72 22 57 14 61 61 VRB 5 7 29.62 1003 10 16 0.00 0.00
2:56 pm 14:56 Mostly Cloudy 73 22.8 58 14.4 59 59 N 10 17 29.65 1004 10 16 0.00 0.00
3:56 pm 15:56 Mostly Sunny 72 22.2 55 12.8 55 55 N 21 33 29.63 1003 10 16 0.00 0.00
4:56 pm 16:56 Sunny 69 20.6 54 12.2 59 59 N 17 28 29.62 1003 10 16 0.00 0.00
5:56 pm 17:56 Sunny 65 18.3 52 11.1 63 63 N 20 31 29.67 1005 10 16 0.00 0.00
6:56 pm 18:56 Sunny 62 16.7 51 10.6 67 67 N 18 30 29.69 1006 10 16 0.00 0.00
7:56 pm 19:56 Sunny 59 15 51 10.6 75 75 N 17 28 29.69 1006 10 16 0.00 0.00
8:56 pm 20:56 Clear 56 13.3 50 10 81 81 N 17 28 29.74 1007 10 16 0.00 0.00
9:56 pm 21:56 Partly Cloudy 54 12.2 50 10 87 87 N 12 19 29.78 1008 10 16 0.00 0.00
10:56 pm 22:56 Cloudy 56 13.3 51 10.6 84 84 N 17 28 29.81 1010 10 16 0.00 0.00
11:16 pm 23:16 Mostly Cloudy 55 13 50 10 82 82 N 17 28 29.83 1010 10 16 0.00 0.00
11:56 pm 23:56 Mostly Clear 55 12.8 49 9.4 80 80 N 18 30 29.80 1009 10 16 0.00 0.00

Powered by AerisWeather